FENGYUN 1C DEB, 36218

Orbit data source: Space-Track

FENGYUN 1C DEB, 36218 is space debris in SSO originally from a launch on Mon, 10 May 1999 UTC launched from the Taiyaun Space Center, China (TSC). Fengyun 1C debris stems from the Chinese weather satellite Fengyun-1C, which was intentionally destroyed by a Chinese anti-satellite missile in 2007. This event dramatically increased the amount of space debris, with thousands of trackable fragments posing hazards to satellites and human spaceflight. The Fengyun 1C debris cloud has become a focal point in discussions about space sustainability and the need for international regulations to prevent the creation of new debris.

Loading next visibility...
Identifier
36218, 1999-025DUT
Orbit
SSO
Country
Flag of CNCN / PRC
Related business
Manufacturer
Unknown
Mission
Spacecraft
Bus & Motor
Unknown
Mass
Unknown
Launch date (UTC)
1999-05-10 (27 years ago)
Launch vehicle
Unknown
Launch site
Taiyaun Space Center, China (TSC)
Object type
Payload
Rocket body
Debris
Shape & HBR
Unknown shape, 0.1 m
Radar Cross Section
Small (<0.1 m²)

Expand to show TLE details & history
Last TLE update: 3 days ago

TLE from 3 days ago
0 FENGYUN 1C DEB
1 36218U 99025DUT 26235.11586843  .00003376  00000-0  50690-3 0  9991
2 36218  99.0531 110.3563 0067699 228.2197 131.3211 14.73816862628729
Epoch: 2026-08-23T02:46Z
TLE epoch observation values (Epoch: 2026-08-23T02:46:51.032Z)
Latitude
-0.00002°
Longitude
97.22712°
Altitude
683.484 km
Speed
7.498 km/s
True Right ascension
07h 21m 25s
True Declination
0° 00' 00"
Sunlit
Object was in daylight at epoch
Visualization orbit readout
Latitude
Unknown
Longitude
Unknown
Altitude
Unknown
Speed
Unknown
Apparent Right ascension
Unknown
Apparent Declination
Unknown
Sunlit
N/A
Visualization observer readout
Local Sidereal Time
03:57:31
Azimuth
Unknown
Elevation
Unknown
Doppler factor
Unknown
Orbital elements
Apogee altitude
693.566 km
Perigee altitude
598.461 km
Semi-major axis
7,024.151 km
Eccentricity
0.00677
Inclination
99.0531°
RAAN
110.3563°
Arg. of periapsis
228.2197°
True anomaly
131.90047°
Mean anomaly
131.3211°
Eccentric anomaly
131.61111°
Mean motion
3.68682 °/min
Orbital period
97.65 mins
BSTAR
0.0005069
Loading maneuver chart data...
Computing Atmospheric mass density...

Documentation

Showing up to 5 results
|